Regional Weather Roundup
Issued by NWS

Home | Current Version | Previous Version | Graphics & Text | Print | Product List | Glossary On
Versions: 1 2 3 4 5 6 7 8 9 10 11 12 13 14 15 16 17 18 19 20 21 22 23 24 25 26 27 28 29 30 31 32 33 34 35 36 37 38 39 40 41 42 43 44 45 46 47 48 49 50
832
ASUS45 KBOU 201307
RWRCO

WEATHER ROUNDUP FOR COLORADO
NATIONAL WEATHER SERVICE DENVER/BOULDER CO
700 AM MDT FRI OCT 20 2017

NOTE: "FAIR" INDICATES FEW OR NO CLOUDS BELOW 12000 FEET WITH NO
SIGNIFICANT WEATHER AND/OR OBSTRUCTIONS TO VISIBILITY.

COZ001>005-013-030-031-201400-
...NORTHWEST COLORADO...

CITY           SKY/WX    TMP DP  RH WIND       PRES   REMARKS
CRAIG          FAIR      36  30  79 CALM      29.84F
HAYDEN         FAIR      44  30  57 E13       29.87F
MEEKER         CLOUDY    48  35  60 CALM      29.85F
RABBIT EARS PA FAIR      37  30  75 SW12G18   30.04F
STEAMBOAT SPGS MOCLDY    38  30  71 CALM      29.88F
WALDEN         NOT AVBL
$$

COZ006>008-011-201400-
...WEST CENTRAL VALLEYS...

CITY           SKY/WX    TMP DP  RH WIND       PRES   REMARKS
GRAND JUNCTION FAIR      57  35  43 SE15      29.80S
MONTROSE       FAIR      50  31  48 SE8       29.91S
EAGLE          MOCLDY    37  28  70 S3        29.95F
RIFLE          CLOUDY    48  35  60 CALM      29.84F
DELTA          MOCLDY    51  32  49 CALM      29.88S
NUCLA          FAIR      55  32  41 E3        29.94S
$$

COZ017>023-064>068-201400-
...SOUTHWEST COLORADO...

CITY           SKY/WX    TMP DP  RH WIND       PRES   REMARKS
DURANGO        FAIR      42  36  79 N5        30.02S
CORTEZ         FAIR      41  35  79 CALM      29.96R
PAGOSA SPRINGS CLOUDY    42  37  84 CALM      30.06F
TELLURIDE      FAIR      47  32  55 SE6       30.07F
WOLF CREEK PAS SNOW      30  30 100 S9        30.25F VSB<1/4 WCI  22
$$

COZ009-010-012-014-032>034-037-058>063-201400-
...CENTRAL COLORADO...

CITY           SKY/WX    TMP DP  RH WIND       PRES   REMARKS
ASPEN          MOCLDY    42  30  62 S10       29.95F
BUENA VISTA    CLOUDY    33  25  72 NW3       30.00F
COPPER MTN     FAIR      37  28  70 SW5       30.15S
BERTHOUD PASS  FAIR      30  21  69 NW24G38   30.14F WCI  16
COTTONWOOD PAS CLOUDY    48  28  46 E5        30.06F
GUNNISON       FAIR      27  21  78 CALM      30.04F
KREMMLING      FAIR      30  27  86 CALM      29.98F
LEADVILLE      CLOUDY    30  22  72 E7        30.04F WCI  23
SALIDA         MOCLDY    40  25  53 CALM      30.06S
SUNLIGHT       CLOUDY    36  28  75 SW14G23   30.10F
WILKERSON PASS FAIR      36  21  55 SW16      30.12F
$$

COZ069>075-201400-
...SAN LUIS VALLEY/SANGRE DE CRISTO MOUNTAINS...

CITY           SKY/WX    TMP DP  RH WIND       PRES   REMARKS
ALAMOSA        MOCLDY    36  31  82 NE5       30.02F
DEL NORTE      FAIR      46  33  60 SW9       30.03F
LA VETA PASS   FAIR      39  32  75 S20G35    30.18F
SAGUACHE       FAIR      32  23  69 N7        30.03F WCI  26
$$

COZ035-036-038>040-201400-
...NORTHERN COLORADO FRONT RANGE...

CITY           SKY/WX    TMP DP  RH WIND       PRES   REMARKS
DENVER INTL AP FAIR      52  26  36 S13       29.77F
DMNS CITY PARK   N/A     50  25  38 S6        29.78S
AURORA         PTCLDY    50  26  39 S10       29.79F
FRONT RANGE AP PTCLDY   N/A N/A N/A S9        29.78F
ERIE MUNI ARPT FAIR      39  33  78 CALM      29.80F
BOULDER MUN AP FAIR      50  32  50 CALM      29.75F
CENTENNIAL     FAIR      47  26  44 SE6       29.80F
BROOMFIELD     CLEAR     54  27  35 CALM      29.78F
FORT COLLINS   FAIR      42  33  70 CALM      29.76F
LONGMONT       FAIR      39  32  75 CALM      29.76F
$$

COZ041-046-047-076>085-087-088-201400-
...PIKES PEAK/PALMER DIVIDE AND SOUTHERN FOOTHILLS...

CITY           SKY/WX    TMP DP  RH WIND       PRES   REMARKS
COLO. SPRINGS  FAIR      52  28  39 NW5       29.83F
A. F. ACADEMY  FAIR      60  25  26 SW3       29.84F
SCHRIEVER AFB  FAIR      51  27  39 CALM      29.83F
CHEYENNE MTN   MOCLDY    56  25  30 CALM      29.82S
ELLICOTT       FAIR     N/A N/A N/A CALM      29.81F
FALCON         FAIR      48  24  38 NW9       29.87F
FORT CARSON    FAIR      45  31  58 CALM      29.80F
LIMON          SNOW      31  31 100 N5        29.79F VSB 1/4 WCI  26
MONUMENT HILL  FAIR      50  25  37 SW10      29.88F
CANON CITY     FAIR      55  30  38 W16       29.82S
WALSENBURG     FAIR      59  37  44 W20       29.88R
TRINIDAD       FAIR      46  36  68 W7        29.87S
$$

COZ042>045-048>051-090-091-201400-
...NORTHEAST COLORADO...

CITY           SKY/WX    TMP DP  RH WIND       PRES   REMARKS
GREELEY ARPT   FAIR      34  30  85 CALM      29.76F
AKRON          FAIR      48  39  71 SW12      29.72F
BURLINGTON     FAIR      50  49  96 S12       29.75F
WRAY           NOT AVBL
YUMA           FAIR      43  41  93 SE7       29.73F
STERLING       NOT AVBL
HOLYOKE        FAIR      45  43  93 SE13      29.73F
FORT MORGAN    FAIR      37  33  84 W7        29.74S
$$

COZ086-089-092>099-201400-
...SOUTHEAST COLORADO...

CITY           SKY/WX    TMP DP  RH WIND       PRES   REMARKS
PUEBLO         FAIR      39  33  79 W3        29.78F
LA JUNTA       FAIR      45  36  70 W8        29.77F
LAMAR          FAIR      54  46  74 CALM      29.75R
SPRINGFIELD    NOT AVBL
$$




USA.gov is the U.S. government's official web portal to all federal, state and local government web resources and services.